Flag for U.S.A. Weather past 2 weeks in Pomona, California, U.S.A.

Now
86 °F

Passing clouds.


Feels Like: 87 °F
Forecast: 62 / 87 °F
Wind: 16 mph from West

Location: Chino Airport

Current Time: Sep 2, 2014 at 5:31:37 PM

Latest Report: Sep 2, 2014 at 4:53 PM


Visibility: 10 mi

Pressure: 29.75 "Hg

Humidity: 46%

Dew point: 63 °F

Location of PomonaLocation

Historic Weather in Pomona — Graph

°F

Pomona temperature yesterday

Maximum temperature yesterday: 93 °F (at 1:53 PM)
Minimum temperature yesterday: 62 °F (at 6:53 AM)
Average temperature yesterday: 76 °F

Past Weeks' High & Low Weather Summary

 TemperatureHumidityPressure
High99 °F (Aug 28, 12:53 PM)100% (Aug 23, 6:03 AM)30.06 "Hg (Aug 23, 6:03 AM)
Low60 °F (Aug 23, 6:53 AM)18% (Aug 28, 12:53 PM)29.72 "Hg (Aug 30, 4:53 PM)
Average75 °F60%29.88 "Hg
* Reported Aug 18 3:53 PM — Sep 2 3:53 PM, Pomona, Weather by CustomWeather, © 2014

Note: Actual official high and low records may vary slightly from our data, if they occured in-between our weather recording intervals... More about our weather records

Advertising

Pomona weather history for previous 24 hours

 ConditionsComfort  
Time TempWeatherWind HumidityBarometerVisibility
3:53 PM
Sep 2
91 °FPassing clouds.16 mph34%29.74 "Hg10 mi
2:53 PM93 °FSunny.13 mph29%29.76 "Hg10 mi
1:53 PM92 °FPassing clouds.9 mph32%29.78 "Hg10 mi
12:53 PM89 °FPassing clouds.7 mph32%29.80 "Hg10 mi
11:53 AM82 °FPassing clouds.5 mph49%29.83 "Hg10 mi
10:53 AM76 °FHaze.3 mph64%29.85 "Hg5 mi
9:53 AM70 °FPartly sunny.3 mph79%29.86 "Hg3 mi
8:53 AM67 °FFog.No wind87%29.87 "Hg3 mi
7:53 AM65 °FFog.No wind91%29.88 "Hg3 mi
6:53 AM65 °FFog.5 mph91%29.87 "Hg4 mi
5:53 AM64 °FFog.5 mph94%29.86 "Hg6 mi
4:53 AM64 °FFog.3 mph94%29.85 "Hg6 mi
4:00 AM63 °FFog.5 mph93%29.87 "Hg6 mi
2:53 AM63 °FClear.3 mph93%29.84 "Hg7 mi
1:53 AM64 °FClear.5 mph90%29.83 "Hg8 mi
12:53 AM65 °FClear.5 mph87%29.83 "Hg8 mi
11:53 PM
Sep 1
65 °FClear.6 mph87%29.82 "Hg8 mi
10:53 PM67 °FClear.3 mph81%29.83 "Hg9 mi
9:53 PM68 °FClear.6 mph78%29.82 "Hg9 mi
8:53 PM71 °FClear.7 mph73%29.81 "Hg9 mi
7:53 PM76 °FSunny.12 mph60%29.78 "Hg10 mi
6:53 PM82 °FPassing clouds.10 mph48%29.76 "Hg10 mi
5:53 PM87 °FPassing clouds.14 mph42%29.75 "Hg10 mi
Weather by CustomWeather, © 2014

See weather overviewHow to use our weather pages